Location: The Saddle
(36.8333°N, 80.3417°W)
Time: 10:02:14
(UTC-04:00)

Vanguard 2 Rocket - Pass Details

Date: 02 February 2023
Orbit: 555 x 3316 km, 32.9° (Epoch: 25 March)

Event Time Altitude Azimuth Distance (km) Brightness Sun altitude
Rises 08:19:45 0° 206° (SSW) 4,481 10.5 9.5°
Reaches altitude 10° 08:25:32 10° 178° (S) 2,845 10.0 10.5°
Maximum altitude 08:27:44 12° 158° (SSE) 2,484 10.1 10.9°
Drops below altitude 10° 08:29:41 10° 138° (SE) 2,413 11.0 11.2°
Sets 08:33:28 0° 104° (ESE) 3,005 11.2 11.9°
